CW0352 Weather Reports


Display with metric or nautical units.
time (UTC)temp
F
wind
direction
speed
MPH
gust
MPH
rain 1hr
in
rain 24hr
in
rain mn
in
humidity
%
barometer
mb
20260503200118 80 0 4.0 11.0 0.00 0.00 0.00 20 1013.2
20260503195510 79 0 5.0 11.0 0.00 0.00 0.00 20 1013.2
20260503195225 79 0 5.0 10.0 0.00 0.00 0.00 20 1013.1
20260503195112 79 0 5.0 10.0 0.00 0.00 0.00 20 1013.1
20260503194507 79 0 4.0 10.0 0.00 0.00 0.00 21 1013.1
20260503194008 79 0 4.0 12.0 0.00 0.00 0.00 21 1013.1
20260503193459 78 0 5.0 12.0 0.00 0.00 0.00 21 1013.2
20260503192934 78 0 5.0 12.0 0.00 0.00 0.00 21 1013.2
20260503192657 79 0 5.0 12.0 0.00 0.00 0.00 20 1013.3
20260503192541 79 0 5.0 12.0 0.00 0.00 0.00 20 1013.3
20260503191906 79 0 5.0 10.0 0.00 0.00 0.00 20 1013.3
20260503191339 79 0 4.0 11.0 0.00 0.00 0.00 21 1013.2
20260503191049 79 0 3.0 11.0 0.00 0.00 0.00 21 1013.3
20260503190919 79 0 3.0 11.0 0.00 0.00 0.00 21 1013.3
20260503190246 78 0 4.0 10.0 0.00 0.00 0.00 21 1013.4
20260503185720 77 0 5.0 10.0 0.00 0.00 0.00 21 1013.5
20260503185153 77 0 5.0 10.0 0.00 0.00 0.00 21 1013.6
20260503184650 77 0 5.0 11.0 0.00 0.00 0.00 21 1013.7
20260503184145 77 0 4.0 11.0 0.00 0.00 0.00 21 1013.7
20260503183621 77 0 4.0 10.0 0.00 0.00 0.00 21 1013.8
20260503183049 77 0 5.0 12.0 0.00 0.00 0.00 21 1013.9
20260503182546 77 0 5.0 12.0 0.00 0.00 0.00 21 1014.2
20260503182020 77 0 4.0 11.0 0.00 0.00 0.00 21 1014.2
20260503181453 76 0 4.0 11.0 0.00 0.00 0.00 22 1014.4
20260503180950 76 0 6.0 15.0 0.00 0.00 0.00 23 1014.5
20260503180710 76 0 6.0 15.0 0.00 0.00 0.00 22 1014.7
20260503180541 76 0 6.0 15.0 0.00 0.00 0.00 22 1014.7
20260503175934 76 0 4.0 10.0 0.00 0.00 0.00 22 1014.7
20260503175413 76 0 4.0 8.0 0.00 0.00 0.00 22 1014.9
20260503174913 76 0 4.0 11.0 0.00 0.00 0.00 25 1015.0
20260503174411 75 0 4.0 11.0 0.00 0.00 0.00 24 1015.2
20260503173843 76 0 5.0 11.0 0.00 0.00 0.00 22 1015.2
20260503173319 76 0 4.0 11.0 0.00 0.00 0.00 22 1015.3
20260503172752 77 0 4.0 9.0 0.00 0.00 0.00 22 1015.3
20260503172226 77 0 2.0 8.0 0.00 0.00 0.00 21 1015.4
20260503172037 78 0 1.0 4.0 0.00 0.00 0.00 21 1015.4
20260503171948 78 0 1.0 4.0 0.00 0.00 0.00 21 1015.4
20260503171136 76 0 2.0 6.0 0.00 0.00 0.00 23 1015.5
20260503170610 75 0 3.0 6.0 0.00 0.00 0.00 22 1015.5
20260503170116 76 0 3.0 8.0 0.00 0.00 0.00 22 1015.6
20260503150727 69 0 1.0 4.0 0.00 0.00 0.00 36 1015.9
20260503150202 68 0 1.0 5.0 0.00 0.00 0.00 34 1016.0
20260503131249 50 0 4.0 9.0 0.00 0.00 0.00 51 1016.1
20260503130744 50 0 4.0 9.0 0.00 0.00 0.00 51 1016.0
20260503130237 49 0 4.0 9.0 0.00 0.00 0.00 51 1016.1
20260503110751 44 0 4.0 8.0 0.00 0.00 0.00 59 1015.4
20260503110442 44 0 4.0 8.0 0.00 0.00 0.00 60 1015.5
20260503110326 44 0 4.0 8.0 0.00 0.00 0.00 60 1015.5
20260503090128 49 0 3.0 6.0 0.00 0.00 0.00 51 1016.8
20260503081428 49 0 3.0 8.0 0.00 0.00 0.00 49 1017.2
20260503081405 49 0 3.0 8.0 0.00 0.00 0.00 49 1017.1
20260503081334 49 0 3.0 8.0 0.00 0.00 0.00 49 1017.2
20260503080817 49 0 3.0 8.0 0.00 0.00 0.00 48 1017.2
20260503080439 49 0 3.0 8.0 0.00 0.00 0.00 48 1017.2
20260503072751 50 0 3.0 9.0 0.00 0.00 0.00 47 1017.2
20260503072250 50 0 3.0 10.0 0.00 0.00 0.00 47 1017.4
20260503071723 50 0 3.0 10.0 0.00 0.00 0.00 46 1017.5
20260503071154 50 0 3.0 8.0 0.00 0.00 0.00 46 1017.5
20260503070651 50 0 3.0 8.0 0.00 0.00 0.00 46 1017.5
20260503070129 50 0 2.0 8.0 0.00 0.00 0.00 46 1017.5
20260503054835 51 0 3.0 8.0 0.00 0.00 0.00 45 1017.6
20260503054311 51 0 3.0 8.0 0.00 0.00 0.00 44 1017.5
20260503053812 51 0 4.0 10.0 0.00 0.00 0.00 44 1017.6
20260503053308 51 0 4.0 10.0 0.00 0.00 0.00 44 1017.6
20260503052808 51 0 3.0 10.0 0.00 0.00 0.00 44 1017.6
20260503052305 52 0 4.0 10.0 0.00 0.00 0.00 44 1017.7
20260503051801 52 0 4.0 11.0 0.00 0.00 0.00 43 1017.6
20260503051502 52 0 4.0 11.0 0.00 0.00 0.00 43 1017.6
20260503051343 52 0 4.0 11.0 0.00 0.00 0.00 43 1017.6
20260503051000 52 0 3.0 9.0 0.00 0.00 0.00 43 1017.7
20260503050840 52 0 3.0 9.0 0.00 0.00 0.00 43 1017.7
20260503050228 53 0 4.0 10.0 0.00 0.00 0.00 43 1017.7
20260503045715 53 0 3.0 10.0 0.00 0.00 0.00 42 1017.7
20260503045445 53 0 4.0 12.0 0.00 0.00 0.00 42 1017.7
20260503045315 53 0 4.0 12.0 0.00 0.00 0.00 42 1017.7
20260503044710 54 0 4.0 12.0 0.00 0.00 0.00 41 1017.6
20260503044145 54 0 4.0 11.0 0.00 0.00 0.00 40 1017.8
20260503043622 55 0 4.0 12.0 0.00 0.00 0.00 40 1017.8
20260503043103 55 0 4.0 12.0 0.00 0.00 0.00 39 1017.7
20260503042541 55 0 3.0 11.0 0.00 0.00 0.00 39 1017.7
20260503042023 55 0 2.0 10.0 0.00 0.00 0.00 39 1017.8
20260503041522 55 0 2.0 6.0 0.00 0.00 0.00 39 1017.8
20260503041243 56 0 2.0 6.0 0.00 0.00 0.00 38 1017.9
20260503041121 56 0 2.0 6.0 0.00 0.00 0.00 38 1017.9
20260503040516 56 0 2.0 6.0 0.00 0.00 0.00 38 1017.9
20260503040010 56 0 2.0 5.0 0.00 0.00 0.00 39 1017.9
20260503035508 56 0 2.0 5.0 0.00 0.00 0.00 39 1018.0
20260503035017 57 0 1.0 5.0 0.00 0.00 0.00 39 1018.0
20260503034505 57 0 1.0 3.0 0.00 0.00 0.00 39 1018.1
20260503034221 58 0 1.0 5.0 0.00 0.00 0.00 38 1018.0
20260503034104 58 0 1.0 5.0 0.00 0.00 0.00 38 1018.0
20260503033458 58 0 1.0 4.0 0.00 0.00 0.00 38 1017.9
20260503032956 59 0 1.0 2.0 0.00 0.00 0.00 37 1017.9
20260503032434 59 0 1.0 3.0 0.00 0.00 0.00 37 1017.9
20260503032141 60 0 1.0 2.0 0.00 0.00 0.00 36 1017.8
20260503032015 60 0 1.0 2.0 0.00 0.00 0.00 36 1017.8
20260503031349 60 0 1.0 2.0 0.00 0.00 0.00 36 1017.9
20260503030827 61 0 1.0 3.0 0.00 0.00 0.00 35 1017.8
20260503030310 61 0 1.0 3.0 0.00 0.00 0.00 35 1017.8
20260503025811 61 0 1.0 2.0 0.00 0.00 0.00 34 1017.8
20260503025311 62 0 0.0 3.0 0.00 0.00 0.00 34 1017.8
20260503024757 62 0 1.0 3.0 0.00 0.00 0.00 34 1017.6
20260503024259 63 0 0.0 2.0 0.00 0.00 0.00 33 1017.6
20260503023744 63 0 0.0 3.0 0.00 0.00 0.00 33 1017.6
20260503023219 64 0 0.0 2.0 0.00 0.00 0.00 32 1017.7
20260503022657 64 0 0.0 3.0 0.00 0.00 0.00 32 1017.6
20260503022404 65 0 1.0 3.0 0.00 0.00 0.00 31 1017.5
20260503022244 65 0 1.0 3.0 0.00 0.00 0.00 31 1017.5
20260503021624 65 0 0.0 2.0 0.00 0.00 0.00 31 1017.5
20260503021056 66 0 0.0 1.0 0.00 0.00 0.00 30 1017.5
20260503020758 66 0 0.0 1.0 0.00 0.00 0.00 29 1017.5
20260503020634 66 0 0.0 1.0 0.00 0.00 0.00 29 1017.5
20260503020022 67 0 0.0 2.0 0.00 0.00 0.00 30 1017.5
20260503015752 68 0 0.0 2.0 0.00 0.00 0.00 29 1017.5
20260503015623 68 0 0.0 2.0 0.00 0.00 0.00 29 1017.5
20260503015240 68 0 0.0 2.0 0.00 0.00 0.00 29 1017.5
20260503015121 68 0 0.0 2.0 0.00 0.00 0.00 29 1017.5
20260503014513 69 0 1.0 3.0 0.00 0.00 0.00 28 1017.5
20260503013950 69 0 1.0 3.0 0.00 0.00 0.00 27 1017.5
20260503013609 71 0 0.0 3.0 0.00 0.00 0.00 26 1017.4
20260503013503 70 0 0.0 3.0 0.00 0.00 0.00 27 1017.5
20260503012957 71 0 0.0 3.0 0.00 0.00 0.00 26 1017.4
20260503012406 72 0 0.0 2.0 0.00 0.00 0.00 25 1017.4
20260503011822 72 0 0.0 3.0 0.00 0.00 0.00 24 1017.4
20260503011319 73 0 0.0 3.0 0.00 0.00 0.00 23 1017.4
20260503010751 73 0 1.0 4.0 0.00 0.00 0.00 22 1017.4
20260503010225 73 0 1.0 4.0 0.00 0.00 0.00 21 1017.4
20260503005917 74 0 2.0 5.0 0.00 0.00 0.00 21 1017.4
20260503005801 74 0 2.0 5.0 0.00 0.00 0.00 21 1017.4
20260503005130 74 0 2.0 5.0 0.00 0.00 0.00 21 1017.5
20260503004900 74 0 2.0 5.0 0.00 0.00 0.00 22 1017.6
20260503004731 74 0 2.0 5.0 0.00 0.00 0.00 22 1017.6
20260503004322 74 0 2.0 5.0 0.00 0.00 0.00 21 1017.5
20260503004206 74 0 2.0 5.0 0.00 0.00 0.00 21 1017.5
20260503003532 75 0 3.0 5.0 0.00 0.00 0.00 21 1017.6
20260503003030 75 0 2.0 5.0 0.00 0.00 0.00 21 1017.5
20260503002527 75 0 2.0 5.0 0.00 0.00 0.00 22 1017.6
20260503002226 75 0 3.0 8.0 0.00 0.00 0.00 22 1017.6
20260503002105 75 0 3.0 8.0 0.00 0.00 0.00 22 1017.6
20260503001434 75 0 3.0 8.0 0.00 0.00 0.00 21 1017.7
20260503001208 75 0 3.0 8.0 0.00 0.00 0.00 22 1017.7
20260503001049 75 0 3.0 8.0 0.00 0.00 0.00 22 1017.7
20260503000431 75 0 4.0 10.0 0.00 0.00 0.00 21 1017.8
20260502235908 76 0 3.0 8.0 0.00 0.00 0.00 21 1017.8
20260502235353 76 0 3.0 10.0 0.00 0.00 0.00 20 1017.8
20260502234851 76 0 3.0 10.0 0.00 0.00 0.00 21 1017.9
20260502234406 76 212 2.0 6.0 0.00 0.00 0.00 20 1017.9
20260502233817 76 213 2.0 5.0 0.00 0.00 0.00 21 1018.0
20260502233313 76 0 2.0 9.0 0.00 0.00 0.00 22 1018.1
20260502232751 75 0 3.0 10.0 0.00 0.00 0.00 22 1018.1
20260502232243 75 0 3.0 10.0 0.00 0.00 0.00 23 1018.2
20260502231717 75 0 3.0 11.0 0.00 0.00 0.00 24 1018.2
20260502231213 74 0 5.0 11.0 0.00 0.00 0.00 24 1018.3
20260502230711 74 0 6.0 11.0 0.00 0.00 0.00 24 1018.4
20260502230154 74 0 6.0 16.0 0.00 0.00 0.00 23 1018.4
20260502225654 75 0 4.0 16.0 0.00 0.00 0.00 23 1018.4
20260502225147 75 0 2.0 8.0 0.00 0.00 0.00 24 1018.3
20260502224620 75 0 3.0 6.0 0.00 0.00 0.00 24 1018.6
20260502224052 74 0 5.0 10.0 0.00 0.00 0.00 24 1018.7
20260502223526 75 0 4.0 11.0 0.00 0.00 0.00 24 1018.7
20260502222956 74 0 4.0 11.0 0.00 0.00 0.00 24 1018.8
20260502222429 74 0 3.0 10.0 0.00 0.00 0.00 24 1018.9
20260502221926 74 0 4.0 13.0 0.00 0.00 0.00 24 1019.0
20260502221427 73 0 6.0 13.0 0.00 0.00 0.00 24 1019.1
20260502220908 74 0 7.0 13.0 0.00 0.00 0.00 24 1019.2
20260502220351 74 0 6.0 13.0 0.00 0.00 0.00 24 1019.4
20260502220111 74 0 4.0 12.0 0.00 0.00 0.00 24 1019.4
20260502215958 74 0 4.0 12.0 0.00 0.00 0.00 24 1019.4
20260502215328 74 0 3.0 10.0 0.00 0.00 0.00 25 1019.5
20260502214823 74 0 4.0 10.0 0.00 0.00 0.00 24 1019.7
20260502214300 74 0 5.0 13.0 0.00 0.00 0.00 24 1019.7
20260502213752 74 0 3.0 12.0 0.00 0.00 0.00 24 1019.9
20260502213738 74 0 6.0 13.0 0.00 0.00 0.00 24 1019.8
20260502213704 74 0 3.0 12.0 0.00 0.00 0.00 24 1019.9
20260502212714 75 0 2.0 11.0 0.00 0.00 0.00 25 1020.1
20260502212429 74 0 5.0 13.0 0.00 0.00 0.00 25 1020.2
20260502212316 74 0 5.0 13.0 0.00 0.00 0.00 25 1020.2
20260502211908 73 0 4.0 13.0 0.00 0.00 0.00 25 1020.3
20260502211751 73 0 4.0 13.0 0.00 0.00 0.00 25 1020.3
20260502211124 73 0 3.0 10.0 0.00 0.00 0.00 25 1020.3
20260502210622 73 0 4.0 12.0 0.00 0.00 0.00 26 1020.4
20260502210115 73 0 4.0 12.0 0.00 0.00 0.00 25 1020.5
20260502205610 73 0 5.0 12.0 0.00 0.00 0.00 25 1020.6
20260502205111 73 0 5.0 12.0 0.00 0.00 0.00 25 1020.8
20260502204607 74 0 3.0 12.0 0.00 0.00 0.00 24 1020.8
20260502204107 74 0 3.0 9.0 0.00 0.00 0.00 25 1020.9
20260502203554 72 0 4.0 11.0 0.00 0.00 0.00 26 1021.0
20260502203031 72 0 4.0 11.0 0.00 0.00 0.00 26 1021.2
20260502202739 72 0 5.0 11.0 0.00 0.00 0.00 25 1021.2
20260502202611 72 0 5.0 11.0 0.00 0.00 0.00 25 1021.2
20260502201947 72 0 3.0 11.0 0.00 0.00 0.00 26 1021.2
20260502201446 71 0 3.0 11.0 0.00 0.00 0.00 26 1021.4
20260502200921 71 0 4.0 11.0 0.00 0.00 0.00 27 1021.6
20260502200355 70 0 4.0 9.0 0.00 0.00 0.00 28 1021.6